Voltar ao catálogo

COSMOS 1153

AtivoMilitarPO
NORAD 11680·PAYLOAD·🇷🇺 Russia

Lançado Jan 25, 1980 de Plesetsk Cosmodrome

Loading…

Próximas Passagens (próximas 24 horas)

TLE

AtualizadoSource: Space-Track

Época: Sep 14, 2026, 13:44 UTC

1 11680U 80007A   26257.57247843  .00000046  00000-0  32071-4 0  9990
2 11680  82.9288 104.2696 0038417  87.6484 301.8871 13.73873040334782

Acompanhe COSMOS 1153 em tempo real com AllMySat

Download on the App Store